Change the Weather History Date:

Friday, November 16, 2012

  Actual Average Record
Temperature  
Mean Temperature 40 °F 31 °F  
Max Temperature 53 °F 42 °F 74 °F (1975)
Min Temperature 26 °F 21 °F -15 °F (1955)
Degree Days  
Heating Degree Days 25 34  
Month to date heating degree days 476 485  
Since 1 July heating degree days 1496 1664  
Cooling Degree Days 0 0  
Month to date cooling degree days 0 0  
Year to date cooling degree days 390 177  
Moisture  
Dew Point 21 °F    
Average Humidity 60    
Maximum Humidity 92    
Minimum Humidity 28    
Precipitation  
Precipitation 0.00 in 0.02 in 0.35 in (1958)
Month to date precipitation 0.29 0.37  
Year to date precipitation 11.86 18.33  
Sea Level Pressure  
Sea Level Pressure 30.07 in    
Wind  
Wind Speed 8 mph (WSW)    
Max Wind Speed 21 mph    
Max Gust Speed 35 mph    
Visibility 10 miles    
Events      
T = Trace of Precipitation, MM = Missing Value Source: NWS Daily Summary

Daily Weather History Graph

Daily Weather History Graph

Search for Another Location

Airport or City:

Trip Planner

Search our weather history database for the weather conditions in past years. The results will help you decide how hot, cold, wet, or windy it might be!

Date:

Astronomy

Nov. 16, 2012 Rise Set
Actual Time 6:50 AM MST 4:27 PM MST
Civil Twilight 6:19 AM MST 4:58 PM MST
Nautical Twilight 5:44 AM MST 5:33 PM MST
Astronomical Twilight 5:10 AM MST 6:07 PM MST
Moon 9:48 AM MST (11/16) 7:28 PM MST (11/16)
Length of Visible Light 10h 39m
Length of Day
9h 36m
Waxing Crescent, 12% of the Moon is Illuminated
Nov 16
Waxing Crescent
Nov 20
First Quarter
Nov 28
Full
Dec 6
Last Quarter
Dec 13
New

Hourly Weather History & Observations

Time (MST) Temp. Windchill Dew Point Humidity Pressure Visibility Wind Dir Wind Speed Gust Speed Precip Events Conditions
12:53 AM 30.0 °F 25.2 °F 25.0 °F 82% 30.18 in 10.0 mi SW 4.6 mph - N/A   Clear
1:53 AM 28.9 °F 22.8 °F 25.0 °F 85% 30.17 in 8.0 mi SW 5.8 mph - N/A   Clear
2:53 AM 28.9 °F 21.1 °F 25.0 °F 85% 30.14 in 7.0 mi WSW 8.1 mph - N/A   Clear
3:53 AM 27.0 °F 21.6 °F 24.1 °F 89% 30.14 in 6.0 mi SW 4.6 mph - N/A   Clear
4:53 AM 26.1 °F 21.9 °F 24.1 °F 92% 30.17 in 6.0 mi West 3.5 mph - N/A   Clear
5:53 AM 28.9 °F 19.8 °F 24.1 °F 82% 30.16 in 10.0 mi WSW 10.4 mph - N/A   Clear
6:53 AM 30.9 °F 21.7 °F 23.0 °F 72% 30.16 in 10.0 mi West 11.5 mph - N/A   Clear
7:53 AM 36.0 °F 27.5 °F 24.1 °F 62% 30.13 in 10.0 mi West 12.7 mph - N/A   Clear
8:53 AM 42.1 °F 34.2 °F 23.0 °F 47% 30.11 in 10.0 mi West 16.1 mph 23.0 mph N/A   Clear
9:53 AM 46.9 °F - 21.9 °F 37% 30.07 in 10.0 mi West 15.0 mph 28.8 mph N/A   Clear
10:53 AM 48.9 °F - 21.0 °F 33% 30.06 in 10.0 mi WSW 15.0 mph 21.9 mph N/A   Clear
11:53 AM 50.0 °F - 19.9 °F 31% 30.03 in 10.0 mi WSW 12.7 mph 18.4 mph N/A   Clear
12:53 PM 50.0 °F - 19.9 °F 31% 30.02 in 10.0 mi WSW 10.4 mph - N/A   Clear
1:53 PM 51.1 °F - 19.9 °F 29% 30.01 in 10.0 mi WSW 8.1 mph 17.3 mph N/A   Clear
2:53 PM 52.0 °F - 19.9 °F 28% 29.99 in 10.0 mi West 8.1 mph - N/A   Clear
3:53 PM 48.9 °F - 19.9 °F 32% 30.04 in 10.0 mi West 6.9 mph - N/A   Clear
4:53 PM 45.0 °F 41.2 °F 19.9 °F 37% 30.05 in 10.0 mi WSW 6.9 mph - N/A   Clear
5:53 PM 43.0 °F 38.2 °F 19.0 °F 38% 30.06 in 10.0 mi West 8.1 mph - N/A   Clear
6:53 PM 39.9 °F 36.7 °F 19.0 °F 43% 30.05 in 10.0 mi NW 4.6 mph - N/A   Mostly Cloudy
7:53 PM 39.9 °F - 18.0 °F 41% 30.03 in 10.0 mi Calm Calm - N/A   Clear
8:53 PM 34.0 °F 31.0 °F 18.0 °F 52% 30.03 in 10.0 mi WSW 3.5 mph - N/A   Clear
9:53 PM 36.0 °F 32.1 °F 18.0 °F 48% 29.99 in 10.0 mi West 4.6 mph - N/A   Clear
10:53 PM 41.0 °F 37.1 °F 18.0 °F 40% 29.95 in 10.0 mi WSW 5.8 mph - N/A   Partly Cloudy
11:53 PM 44.1 °F 41.5 °F 21.0 °F 40% 29.94 in 10.0 mi SW 4.6 mph - N/A   Mostly Cloudy